Temperature
15 14 14 14 14 14 14 14 14 14 13 13 13 13 13 13 13 13 13 13 13 13 12 12 12 12 12 12 12 12 12 12 12 11 11 11 11 11 11 11 11 11 11
14 14 14 14 14 14 14 14 14 13 13 13 13 13 13 13 13 13 13 12 12 12 12 12 12 12 12 12 12 12 12 11 11 11 11 11 11 11 11 11 11 11 11
14 14 14 14 14 13 13 13 13 13 13 13 13 13 13 12 12 12 12 12 12 12 12 12 12 12 12 12 11 11 11 11 11 11 11 11 11 11 11 11 11 11 11
14 14 14 13 13 13 13 13 13 13 13 13 13 12 12 12 12 12 12 12 12 11 11 11 11 11 11 11 11 11 11 11 11 11 11 11 11 11 11 11 11 11 11
13 13 13 13 13 13 12 12 12 12 12 12 12 12 12 12 12 11 11 11 11 11 11 11 11 11 11 11 11 11 11 11 11 11 11 11 11 11 11 11 11 11 11
13 13 13 13 12 12 12 12 12 12 12 12 12 11 11 11 11 11 11 11 11 11 11 11 11 11 11 11 11 11 11 10 10 10 10 10 10 10 10 10 10 10 10
13 13 12 12 12 12 12 12 11 11 11 11 11 11 11 11 11 11 11 11 11 11 11 11 10 10 10 10 10 10 10 10 10 10 10 10 10 10 10 10 10 10 10
12 12 12 12 12 11 11 11 11 11 11 11 11 11 10 10 10 10 10 10 10 10 10 10 10 10 10 10 10 10 10 10 10 10 10 10 10 10 10 10 10 10 10
12 12 11 11 11 11 11 11 11 11 11 10 10 10 10 10 10 10 10 10 10 10 10 10 10 10 10 10 10 10 10 10 10 9 9 9 9 9 9 9 9 9 9
11 11 11 11 11 11 10 10 10 10 10 10 10 10 10 9 9 9 9 9 9 9 9 9 9 9 10 10 10 10 10 10 9 9 9 9 9 9 9 9 9 9 9
11 11 11 10 10 10 10 10 10 9 9 9 9 9 9 9 9 9 9 9 9 9 9 9 9 9 9 9 9 9 9 9 9 9 9 9 9 9 9 9 9 9 9
11 10 10 10 10 10 10 9 9 9 9 9 9 8 8 8 8 8 8 8 8 8 8 8 8 8 8 8 8 8 9 8 8 8 8 9 9 9 8 8 8 8 8
10 10 10 9 9 9 9 9 9 8 8 8 8 8 8 8 8 8 8 8 8 8 8 8 8 8 8 8 8 8 8 8 8 8 8 8 8 8 8 8 8 8 8
9 9 9 9 9 9 8 8 8 8 8 8 7 7 7 7 7 7 7 7 7 7 7 7 7 7 7 7 7 7 7 8 8 8 8 8 8 8 8 8 8 8 8
9 9 9 8 8 8 8 8 8 7 7 7 7 7 7 7 7 7 7 7 7 7 7 7 7 7 7 7 7 7 7 7 7 7 7 7 7 7 7 7 7 7 7
9 8 8 8 8 7 7 7 7 7 7 7 7 6 6 6 6 6 6 6 6 6 6 6 6 6 6 6 6 7 7 7 7 7 7 7 7 7 7 7 7 7 6
8 8 7 7 7 7 7 7 7 7 6 6 6 6 6 6 5 5 5 6 5 5 5 6 5 5 5 5 6 6 6 6 6 6 6 6 6 6 6 6 6 6 6
7 7 7 7 6 6 6 6 6 6 6 6 6 5 5 5 5 5 5 5 5 5 5 5 5 5 5 5 5 5 5 5 5 5 6 6 6 6 6 6 6 6 6
7 7 6 6 6 6 6 6 6 5 5 5 5 5 5 5 5 5 4 4 4 4 4 4 4 4 4 4 4 4 5 5 5 5 5 5 5 5 5 5 5 5 5
6 6 6 6 6 5 5 5 5 5 5 5 5 5 4 4 4 4 4 4 4 4 4 4 4 4 4 4 4 4 4 4 4 4 4 4 4 4 5 5 4 4 4
6 5 5 5 5 5 5 5 4 4 4 4 4 4 4 4 4 4 4 3 3 3 3 3 3 3 3 3 3 3 3 3 3 3 3 4 3 4 4 4 4 4 4
5 5 5 5 5 4 4 4 4 4 4 4 4 4 4 3 3 3 3 3 3 3 3 3 3 3 3 3 3 3 3 3 3 3 3 3 3 3 3 3 3 3 3
4 4 4 4 4 4 4 3 3 3 3 3 3 3 3 3 3 3 2 2 2 2 2 2 2 2 2 2 2 2 2 2 2 2 2 2 2 2 2 2 2 2 2
4 4 3 3 3 3 3 3 3 3 3 3 2 2 2 2 2 2 2 2 2 2 2 2 2 2 2 2 2 2 2 2 2 2 2 2 2 2 2 2 2 2 2
3 3 3 3 3 3 2 2 2 2 2 2 2 2 2 2 2 2 1 1 1 1 1 1 1 1 1 1 1 1 1 1 1 1 1 1 1 1 1 1 1 1 1
3 2 2 2 2 2 2 2 2 2 1 1 1 1 1 1 1 1 1 1 1 1 1 1 1 1 1 1 1 1 1 1 1 1 1 1 1 1 1 1 1 1 1
Wind_Speed
1 1 0 0 0 1 2 3 3 2 3 3 3 3 3 2 2 3 3 3 3 2 1 2 2 2 2 2 2 3 3 3 3 2 1 0 1 1 1 1 2 2 3
1 1 1 0 0 0 1 2 2 3 3 3 3 3 3 3 3 4 4 3 3 3 2 2 2 2 2 2 3 3 3 3 4 2 1 1 1 1 0 0 0 1 2
1 1 1 0 0 1 1 1 1 1 2 2 3 3 3 3 3 4 4 3 3 4 3 4 3 3 2 2 3 3 3 2 2 2 2 1 0 0 1 1 1 1 2
1 1 1 1 1 1 0 1 0 1 1 1 2 2 2 2 2 2 3 3 3 3 3 4 4 5 5 4 3 4 3 3 3 2 2 1 1 0 1 0 1 1 1
2 1 2 1 0 1 1 1 1 1 1 1 1 1 1 1 2 2 2 2 3 3 3 3 4 5 5 5 4 4 4 3 3 3 2 1 1 1 2 1 2 1 1
2 3 2 1 1 1 0 1 2 2 2 2 1 1 1 2 2 3 3 2 2 2 3 3 3 4 4 5 5 5 6 5 5 4 3 3 4 3 2 2 2 1 2
3 3 2 2 2 1 1 1 1 1 1 1 1 0 1 1 1 1 3 3 2 2 2 3 3 3 3 3 4 4 4 5 7 6 5 6 5 6 4 3 4 3 3
3 2 2 2 2 1 1 1 1 0 0 0 0 0 1 2 1 1 2 3 2 2 3 3 3 3 3 4 3 2 3 4 5 5 6 6 6 5 6 5 5 3 1
2 3 3 4 3 2 2 2 2 1 1 0 0 0 1 2 2 2 1 2 2 2 2 2 3 3 4 4 4 4 3 3 4 5 6 6 7 7 6 4 3 2 2
4 3 3 3 4 4 4 3 2 1 1 1 0 1 1 2 3 2 2 2 2 2 2 2 3 4 4 4 5 5 5 5 3 2 2 4 3 4 7 7 6 5 2
3 2 1 2 3 3 3 2 2 2 1 1 0 1 2 2 3 3 1 2 3 2 2 2 3 4 4 5 5 5 7 5 4 3 3 2 2 2 3 4 5 5 5
2 2 1 1 1 1 2 1 2 2 2 1 0 1 2 2 2 3 2 2 2 2 3 3 3 4 4 5 5 5 6 4 2 2 2 3 3 3 3 4 5 6 6
2 2 2 2 1 2 2 2 2 2 2 1 1 1 2 2 3 4 3 2 2 2 3 3 3 4 3 3 5 6 5 3 3 3 4 5 4 4 3 2 2 3 3
1 1 2 2 2 1 2 2 2 2 2 2 2 2 2 2 2 2 2 2 2 2 2 3 3 2 2 2 3 3 3 3 4 5 4 4 2 2 3 2 2 2 2
1 2 2 2 2 2 2 2 3 3 4 4 4 3 2 3 4 3 2 2 2 2 1 0 0 1 1 2 2 1 1 2 3 3 4 3 3 3 3 2 2 2 3
1 1 1 2 2 2 2 1 2 3 4 4 4 4 4 4 4 3 3 3 3 2 1 1 1 2 2 2 2 2 2 2 3 3 3 3 4 4 3 2 3 3 4
3 2 2 2 2 2 2 2 2 2 3 3 4 4 4 4 3 3 3 2 2 1 1 2 2 2 2 2 2 2 2 3 2 2 3 3 3 3 3 3 3 3 4
3 3 2 2 3 3 3 3 3 2 2 3 4 5 5 5 4 3 2 0 1 1 1 2 2 2 2 2 2 2 2 2 1 2 2 3 3 3 3 3 4 4 4
2 2 2 2 2 2 2 2 2 3 3 3 2 3 4 4 4 3 1 1 2 2 2 3 3 2 2 2 2 2 2 2 2 2 2 3 3 3 4 4 4 4 4
3 3 2 2 2 2 2 2 2 3 3 3 3 3 2 1 1 2 2 2 2 3 3 3 3 3 3 3 2 2 2 2 2 2 3 2 2 3 4 4 4 4 4
2 3 3 2 2 2 2 3 3 3 3 4 4 4 3 3 3 3 3 3 3 4 4 3 3 3 3 3 2 2 3 3 3 3 3 3 3 3 3 3 4 4 4
2 2 2 2 2 2 3 3 3 3 3 4 3 3 4 3 3 3 4 4 4 4 4 3 3 3 3 3 3 3 3 3 3 3 3 3 3 3 3 3 3 4 4
2 2 2 2 2 3 2 2 2 3 3 3 3 3 3 3 4 4 4 4 4 4 4 3 3 3 4 4 4 4 4 4 4 4 4 4 4 4 4 4 4 4 5
2 2 2 2 2 2 2 3 3 3 3 3 3 3 3 3 4 4 4 4 4 4 4 4 4 5 5 5 5 6 6 6 5 5 5 4 4 4 4 4 4 5 5
2 2 2 2 3 3 3 3 3 3 3 3 3 3 3 3 3 4 4 4 4 4 5 5 5 5 7 7 6 7 7 7 6 5 5 5 5 5 5 5 4 4 4
2 2 3 2 2 3 3 3 3 3 3 3 3 3 3 4 4 4 4 3 4 4 4 5 6 7 7 8 8 8 8 7 7 7 6 5 5 5 5 4 5 5 4
Wind_Direction
225 222 218 245 210 200 211 231 226 224 209 200 182 179 186 193 191 180 193 174 170 179 175 169 196 167 154 161 154 151 154 148 174 255 232 239 205 269 310 231 251 264 284
211 161 204 244 65 230 236 240 226 217 207 201 186 183 193 200 194 188 191 180 176 186 197 179 204 169 161 162 158 165 172 169 165 200 223 209 225 263 338 23 341 282 270
175 140 112 19 5 267 272 254 214 214 209 198 185 193 202 201 193 194 190 187 189 201 198 193 202 171 180 180 172 178 183 173 161 171 210 210 250 15 39 18 16 352 290
165 150 170 240 239 265 325 33 69 137 151 155 169 189 194 189 180 189 192 192 194 205 206 203 200 190 195 190 189 190 176 163 155 162 193 216 235 290 103 45 317 305 293
180 185 218 227 152 69 42 42 42 61 86 104 128 159 170 174 189 179 183 194 199 207 215 218 213 203 202 195 196 189 174 171 168 171 188 185 212 204 222 211 226 280 283
198 217 215 177 123 111 123 74 52 47 54 65 60 153 175 211 202 181 167 179 190 202 222 228 224 216 213 210 207 190 180 180 186 185 194 204 224 216 200 195 181 142 275
213 228 202 173 174 198 160 97 78 45 59 61 28 80 197 257 242 182 187 176 193 214 224 227 229 219 210 209 221 214 203 200 192 188 194 212 215 211 190 194 199 202 220
212 219 205 181 196 195 153 164 187 131 111 156 299 216 232 273 271 258 219 187 201 223 227 219 222 234 218 199 194 204 221 221 214 206 208 218 217 203 194 199 201 200 239
221 221 213 197 194 188 194 207 199 160 167 230 261 254 242 279 281 260 223 192 212 239 248 239 227 232 232 200 183 199 224 244 236 225 229 231 230 216 186 158 158 165 228
231 229 219 200 192 195 205 207 195 173 199 222 289 288 276 286 296 276 211 182 213 245 269 269 249 243 246 222 198 198 217 233 230 243 258 263 251 222 199 189 188 187 198
230 206 199 205 207 199 194 183 172 169 160 161 289 313 308 302 312 306 255 198 214 225 242 257 263 268 262 250 228 214 226 223 212 218 233 247 246 225 217 210 200 195 197
187 175 193 208 212 181 158 154 149 155 159 177 183 316 315 312 313 308 305 264 248 216 236 247 257 271 270 262 244 235 231 220 202 206 226 238 238 236 234 228 222 218 216
171 181 196 194 194 171 164 167 156 161 170 197 211 264 292 306 307 311 311 301 285 255 254 260 266 269 264 264 247 239 226 214 201 214 229 237 235 233 230 230 232 222 226
168 199 200 192 204 192 174 169 171 183 190 205 223 250 274 291 297 304 303 304 297 276 278 285 287 290 277 271 275 256 231 216 208 222 231 236 227 216 216 210 220 212 217
185 201 209 208 206 203 200 199 196 206 199 195 211 219 228 257 265 268 265 270 262 258 270 314 351 343 315 305 300 293 275 245 234 230 226 228 224 220 227 214 206 202 215
210 229 220 212 207 199 207 272 261 233 240 228 226 219 231 249 264 260 275 282 279 275 145 209 244 245 248 257 263 277 267 254 248 235 227 221 220 222 225 215 201 204 220
224 233 230 220 210 205 204 211 259 293 272 261 258 252 248 255 259 260 271 276 283 239 196 240 245 245 249 255 254 254 265 266 256 240 228 230 223 220 219 216 211 214 224
229 232 227 222 210 206 209 213 218 230 264 280 272 258 253 253 255 261 270 289 311 286 243 246 255 258 254 255 256 256 263 271 266 252 240 231 220 217 221 223 221 223 224
224 232 227 219 214 209 210 212 220 228 240 259 276 277 266 261 261 270 241 193 230 250 253 256 256 258 261 260 264 262 257 258 263 259 258 247 231 221 226 226 222 224 221
231 237 222 211 212 213 213 216 225 231 240 249 254 259 258 223 244 263 246 237 239 252 257 257 258 255 253 252 259 265 266 265 266 262 261 260 250 235 230 227 222 224 227
226 227 223 214 210 217 223 225 227 231 240 248 251 252 232 220 234 241 243 245 244 247 251 256 258 257 256 252 252 254 258 263 260 261 264 256 249 252 248 239 235 230 229
209 211 210 214 221 225 232 232 232 234 241 248 261 266 252 239 239 246 248 251 250 246 241 241 250 249 242 243 244 250 251 256 260 259 259 260 256 252 251 248 244 243 236
202 211 218 223 224 239 250 242 239 241 248 251 252 256 254 247 248 248 251 254 252 249 253 246 246 255 266 263 257 243 246 251 249 248 251 254 254 252 250 251 249 247 243
194 209 218 222 225 229 239 247 244 244 245 250 255 255 255 255 256 255 254 256 255 256 260 258 256 259 265 273 276 270 266 269 270 261 251 251 255 253 251 253 252 250 247
204 209 218 228 235 238 245 251 250 249 249 253 256 263 269 270 270 269 261 255 252 254 260 266 270 269 267 267 272 276 277 276 278 277 267 252 252 251 251 248 248 251 249
217 225 230 230 233 241 245 248 251 252 251 253 254 255 260 265 270 277 273 264 257 256 261 267 269 272 276 274 273 277 278 276 276 275 271 253 247 250 252 250 250 247 246
Height
1517 1518 1518 1518 1518 1518 1518 1518 1519 1519 1519 1520 1521 1521 1521 1522 1523 1523 1524 1525 1525 1526 1526 1527 1527 1528 1528 1529 1529 1530 1530 1531 1531 1532 1532 1533 1533 1532 1532 1532 1531 1530 1529
1516 1516 1516 1516 1516 1516 1516 1516 1516 1517 1517 1517 1518 1518 1519 1520 1520 1520 1521 1521 1522 1523 1524 1524 1525 1525 1526 1527 1527 1528 1528 1529 1529 1530 1531 1531 1531 1531 1530 1530 1530 1529 1528
1515 1514 1514 1514 1514 1514 1514 1514 1514 1514 1514 1515 1515 1516 1516 1516 1517 1517 1518 1518 1519 1520 1521 1522 1522 1523 1523 1524 1524 1525 1526 1527 1527 1528 1528 1529 1529 1529 1528 1528 1528 1528 1527
1513 1513 1512 1512 1512 1511 1511 1511 1511 1511 1512 1512 1513 1513 1514 1514 1514 1514 1515 1515 1516 1517 1518 1519 1520 1520 1520 1521 1522 1522 1523 1524 1524 1525 1525 1526 1526 1526 1526 1526 1526 1526 1526
1510 1510 1510 1510 1509 1509 1509 1509 1509 1509 1509 1510 1510 1510 1511 1511 1511 1512 1512 1512 1513 1514 1515 1515 1516 1517 1518 1518 1519 1519 1520 1520 1521 1521 1522 1523 1523 1523 1523 1523 1523 1523 1523
1507 1507 1507 1507 1507 1507 1507 1507 1507 1507 1507 1507 1507 1507 1508 1508 1509 1509 1509 1509 1510 1510 1511 1512 1513 1513 1514 1515 1515 1516 1517 1517 1517 1518 1518 1519 1519 1520 1521 1521 1520 1520 1520
1505 1505 1505 1505 1505 1505 1505 1504 1504 1504 1504 1504 1504 1504 1505 1505 1506 1506 1506 1506 1507 1507 1508 1508 1509 1509 1510 1511 1511 1512 1513 1513 1514 1515 1515 1515 1516 1517 1517 1517 1517 1517 1517
1502 1502 1502 1502 1502 1502 1502 1502 1502 1502 1502 1502 1501 1501 1502 1502 1502 1502 1503 1503 1503 1504 1504 1504 1505 1505 1506 1507 1507 1508 1508 1509 1510 1511 1511 1512 1513 1513 1513 1514 1514 1514 1514
1499 1499 1499 1499 1499 1499 1499 1499 1499 1499 1499 1499 1499 1498 1498 1499 1499 1499 1499 1499 1499 1499 1500 1500 1501 1501 1502 1502 1503 1503 1504 1505 1506 1506 1507 1508 1508 1509 1509 1510 1510 1510 1509
1496 1496 1496 1496 1495 1495 1495 1495 1495 1495 1495 1495 1495 1495 1495 1495 1495 1496 1496 1495 1495 1495 1495 1496 1496 1497 1497 1498 1498 1499 1499 1500 1501 1502 1502 1503 1503 1504 1504 1505 1505 1505 1505
1493 1493 1493 1493 1493 1492 1492 1492 1492 1492 1492 1492 1492 1492 1492 1492 1492 1492 1492 1491 1491 1491 1491 1491 1492 1492 1492 1493 1494 1494 1494 1496 1496 1497 1497 1498 1498 1499 1499 1500 1500 1501 1501
1489 1489 1489 1489 1489 1489 1489 1489 1489 1489 1489 1488 1488 1488 1488 1488 1488 1488 1488 1488 1487 1487 1487 1487 1487 1488 1488 1489 1489 1489 1490 1491 1491 1492 1492 1492 1493 1493 1494 1495 1495 1496 1496
1486 1486 1486 1486 1486 1486 1486 1486 1486 1485 1485 1485 1485 1485 1484 1484 1485 1485 1484 1484 1483 1483 1483 1483 1483 1483 1484 1484 1484 1485 1485 1485 1485 1486 1486 1487 1488 1488 1489 1490 1490 1491 1491
1483 1483 1483 1483 1483 1483 1483 1483 1483 1483 1482 1482 1482 1481 1481 1481 1481 1480 1480 1480 1480 1479 1479 1479 1479 1479 1479 1479 1479 1480 1480 1480 1480 1480 1480 1482 1483 1483 1484 1485 1485 1485 1486
1480 1480 1479 1480 1480 1480 1480 1480 1480 1480 1480 1479 1479 1479 1478 1477 1477 1477 1477 1476 1475 1475 1475 1474 1474 1474 1474 1474 1474 1474 1474 1474 1475 1475 1475 1476 1477 1478 1478 1479 1480 1480 1480
1476 1476 1476 1476 1476 1476 1476 1476 1476 1477 1477 1476 1476 1476 1475 1475 1474 1473 1473 1473 1472 1472 1471 1470 1470 1469 1469 1469 1469 1469 1469 1469 1469 1469 1470 1470 1471 1472 1473 1474 1474 1475 1475
1473 1473 1473 1473 1473 1473 1473 1472 1472 1473 1473 1472 1472 1472 1472 1471 1470 1470 1469 1469 1468 1468 1467 1466 1466 1465 1465 1465 1465 1465 1465 1465 1465 1465 1465 1465 1466 1466 1467 1468 1469 1470 1470
1470 1470 1469 1469 1469 1469 1469 1469 1469 1468 1468 1468 1468 1468 1468 1467 1466 1466 1466 1465 1464 1463 1463 1462 1462 1462 1462 1461 1461 1461 1461 1460 1460 1460 1460 1460 1461 1461 1462 1462 1463 1464 1465
1466 1466 1465 1466 1466 1466 1465 1465 1465 1464 1464 1463 1463 1464 1464 1463 1462 1462 1461 1461 1459 1459 1459 1458 1458 1458 1458 1458 1457 1457 1457 1456 1456 1456 1456 1456 1456 1456 1457 1457 1458 1458 1459
1462 1462 1462 1462 1462 1462 1461 1461 1461 1460 1460 1460 1459 1459 1459 1458 1457 1457 1457 1456 1456 1455 1455 1454 1454 1454 1454 1454 1453 1453 1452 1452 1452 1452 1451 1451 1451 1451 1452 1452 1452 1453 1453
1458 1458 1458 1458 1458 1458 1457 1457 1457 1457 1456 1456 1455 1455 1455 1454 1453 1453 1452 1452 1451 1451 1450 1450 1450 1450 1450 1449 1449 1448 1448 1448 1448 1447 1447 1447 1447 1447 1447 1447 1448 1448 1449
1455 1454 1454 1454 1454 1453 1453 1453 1453 1452 1452 1451 1451 1451 1450 1450 1449 1448 1448 1447 1447 1447 1446 1446 1446 1445 1445 1445 1444 1444 1443 1443 1443 1443 1442 1442 1442 1442 1442 1442 1443 1443 1443
1451 1450 1450 1450 1450 1450 1449 1449 1449 1448 1448 1447 1447 1446 1446 1445 1444 1443 1443 1443 1442 1442 1442 1442 1441 1441 1441 1440 1440 1439 1439 1438 1438 1438 1437 1437 1437 1437 1438 1437 1437 1438 1438
1447 1447 1446 1446 1446 1446 1445 1445 1444 1444 1443 1443 1442 1442 1441 1440 1439 1439 1438 1438 1437 1437 1437 1437 1436 1436 1436 1435 1435 1434 1434 1434 1433 1433 1433 1432 1432 1432 1432 1433 1433 1433 1433
1443 1443 1443 1442 1442 1442 1441 1441 1440 1440 1439 1438 1438 1437 1436 1436 1435 1434 1433 1433 1432 1432 1432 1431 1431 1431 1430 1430 1429 1429 1429 1428 1428 1428 1428 1428 1427 1427 1427 1427 1427 1428 1428
1440 1439 1439 1439 1438 1437 1437 1436 1436 1435 1435 1434 1433 1432 1432 1431 1430 1429 1429 1428 1427 1427 1426 1426 1426 1425 1425 1425 1424 1424 1423 1423 1423 1423 1423 1422 1422 1422 1422 1422 1422 1422 1422